Location: Paderno d�Adda
(45.6667°N, 9.4333°E)
Time: 13:44:46
(UTC+00:00)

Cosmos 1626 - Pass Details

Date: 19 September 2020
Orbit: 490 x 495 km, 82.5° (Epoch: 29 October)

Event Time Altitude Azimuth Distance (km) Brightness Sun altitude
Rises 19:51:35 0° 352° (N) 2,588 6.3 -25.2°
Reaches altitude 10° 19:53:43 10° 353° (N) 1,700 5.3 -25.5°
Enters shadow 19:55:36 28° 356° (N) 948 3.8 -25.8°
